ORBCOMM FM 5 DEB

Satellite information

Favourite Embed

Satellite Type and Status

DEBRISIN ORBIT

Key statistics

Satellite ORBCOMM FM 5 DEB at a glance.

Uptime

10218

Days in orbit

Revolutions

≈ 14.3

Per day

Orbit

LEO

Low Earth Orbit

Inclination

45.0

Latest

Satellite identification and parameters

Extended collection of information and parameters for ORBCOMM FM 5 DEB.

Object identification

Identified? True

Debris? True

Object name: ORBCOMM FM 5 DEB

International designator: 1997-084W

Object number (NORAD): 51092

Object ID (CCSDS): 51092

Country: ORBITAL TELECOMMUNICATIONS SATELLITE (GLOBALSTAR) (ORB)

Current information (Y/N): Y

RCS size: SMALL

Orbital parameters

Period: 100.38 minutes

Inclination: 45.0219 deg

SMA: 7154.693 km

Apoapsis: 804.151 km

Periapsis: 748.965 km

RAAN: 218.6507 deg

Eccentricy: 0.00385664

Argument of periapsis: 256.7699 deg

Mean anomaly: 102.8844 deg

Mean motion: 14.34551855 rev/day

Mean motion (dot): 0.00000844 rev/day2

B* drag term: 0.0003426791 1/REarth

Two-line elements (TLE)

Creation date: Oct. 23, 2025, 6:40 p.m.

Reference frame: TEME

Reference center: EARTH

Epoch: Oct. 23, 2025, 1:44 a.m. UTC

TLE line 0: 0 ORBCOMM FM 5 DEB

TLE line 1: 1 51092U 97084W 25296.07222874 .00000844 00000-0 34268-3 0 9993

TLE line 2: 2 51092 45.0219 218.6507 0038566 256.7699 102.8844 14.34551855190997

Live tracking on map

Real-time ground track for satellite ORBCOMM FM 5 DEB.

In-orbit conjunctions

A list of the most updated potential collisions computed for object ORBCOMM FM 5 DEB.

Target Orbit TCA Probability of collision Miss distance Type
CZ-6A DEB LEO 2025-05-21 21:24:47 0.000111827 47.0 (m) DEBRIS
FENGYUN 1C DEB SSO 2024-11-07 19:56:40 0.0001958472 316.0 (m) DEBRIS

Associated space launch

ORBCOMM FM 5 DEB was lifted into orbit during the mission ‘Pegasus XL HAPS | Orbcomm-A1 - A8’, on board a Pegasus XL HAPS space rocket.

The launch took place on Dec. 23, 1997, 7:11 p.m. from Wallops Flight Facility.

For more information about the launch, click the button.

Launch to space Pegasus XL HAPS | Orbcomm-A1 - A8
Pegasus XL HAPS | Orbcomm-A1 - A8

Agency: N/A

Status: Launch Successful

Launch date: Dec. 23, 1997, 7:11 p.m. UTC

Rocket: Pegasus XL HAPS

Launch pad: Wallops Flight Facility

Location: Air launch to orbit

...

Latest news about this satellite

There are no fresh news available about this satellite. Check back as we update our databases every day.


Newsletter sign-up

Weekly statistics, charts and insights to help you stay on top of the space industry.